{"data":{"norad_id":61576,"intl_designator":"2024-187C","name":"STARLINK-11372 [DTC]","alt_names":[],"object_type":"PAYLOAD","status":"ACTIVE","operator":null,"country":"US","launch_date":"2024-10-18","launch_site_code":"AFETR","launch_vehicle":null,"mission":null,"orbit_class":"UNKNOWN","rcs_meters":null,"size_class":null,"mass_kg":null,"dimensions":null,"purposes":["comms"],"wikipedia_slug":null,"has_3d_model":false,"image_url":null,"decayed_at":null,"tle_current":{"epoch":"2026-05-25T02:33:02.909952Z","epoch_age_seconds":76453,"freshness":"FRESH","line1":"1 61576U 24187C   26145.10628368  .00000823  00000+0  11652-4 0  9990","line2":"2 61576  53.1595 279.4555 0000979  96.3369 263.7760 15.69710385 92752","mean_motion":15.69710385,"eccentricity":9.79e-5,"inclination_deg":53.1595,"raan_deg":279.4555,"arg_perigee_deg":96.3369,"mean_anomaly_deg":263.776,"bstar":1.1652e-5,"rev_number":9275,"period_min":91.736667716574,"perigee_km":359.06601194407,"apogee_km":360.38528545069,"semimajor_km":6737.8626486974,"source":"CELESTRAK","updated_at":"2026-05-25T13:38:19.401934Z"}}}